STARLINK-32180, 60374

Orbit data source: Space-Track

STARLINK-32180, 60374 is a payload satellite owned by SpaceX/Seattle (US) in LEO that was launched on Sun, 04 Aug 2024 UTC via an FALCON 9 launch vehicle from the Air Force Western Test Range (AFWTR). Payload-class satellites include a variety of spacecraft equipped with specific instruments for various scientific and technological missions. These include communications satellites like Starlink; space stations such as the ISS; scientific satellites like the Hubble; Earth observation satellites from companies like Planet Labs, Umbra, and HawkEye 360; GPS; miniature CubeSats for education and research; and military/defense satellites.

Loading next visibility...
Identifier
60374, 2024-138V
Orbit
LEO
Country
Flag of USUS
Related business
Manufacturer
SpaceX/Seattle
Mission
Operational Commercial Communications
Bus & Motor
STARLINK V2M, Unknown motor
Mass
730 kg wet, ~700 kg dry
Launch date (UTC)
2024-08-04 (1 year ago)
Launch vehicle
FALCON 9
Launch site
Air Force Western Test Range (AFWTR)
Object type
Payload
Rocket body
Debris
Shape & HBR
Box + 2 Pan, 17.7 m
Radar Cross Section
33.884 m², Large (>1 m²)

Expand to show TLE details & history
Last TLE update: 17 hours ago

TLE from 17 hours ago
0 STARLINK-32180
1 60374U 24138V   25291.22151270  .00006770  00000-0  24056-3 0  9997
2 60374  53.1594 251.4526 0001193  84.4805 275.6332 15.30190129 68819
Epoch: 2025-10-18T05:18Z
TLE epoch observation values (Epoch: 2025-10-18T05:18:58.697Z)
Latitude
Longitude
144.75239°
Altitude
476.064 km
Speed
7.629 km/s
True Right ascension
16h 45m 48s
True Declination
0° 00' 00"
Sunlit
Object was in daylight at epoch
Visualization orbit readout
Latitude
Unknown
Longitude
Unknown
Altitude
Unknown
Speed
Unknown
Apparent Right ascension
Unknown
Apparent Declination
Unknown
Sunlit
N/A
Visualization observer readout
Local Sidereal Time
17:12:34
Azimuth
Unknown
Elevation
Unknown
Doppler factor
Unknown
Orbital elements
Apogee altitude
476.319 km
Perigee altitude
474.683 km
Semi-major axis
6,853.638 km
Eccentricity
0.00012
Inclination
53.1594°
RAAN
251.4526°
Arg. of periapsis
84.4805°
True anomaly
275.6196°
Mean anomaly
275.6332°
Eccentric anomaly
275.6264°
Mean motion
3.82526 °/min
Orbital period
94.11 mins
BSTAR
0.00024056
Loading maneuver chart data...
Computing Atmospheric mass density...
Loading historical data...
Loading historical data...
Loading historical data...
Loading historical data...
Loading historical data...
Loading historical data...
Loading historical data...

Documentation

Showing up to 5 results
|